User: anonymous   Login
Location: Unspecified
(0.0000°N, 0.0000°E)
Time: 17:30:22
(UTC+00:00)
Language:

Snapshot - Orbit

View from above orbital plane
View from above orbital plane
View from above satellite
View from above satellite

Ground track
Ground track

The orbit data is extracted from the following two-line orbital elements,

1 01314U 65027A   14352.76627310  .00000185  00000-0  66198-3 0  7351
2 01314 090.2993 259.6524 0031893 077.4609 335.7417 12.91735543 89392
Epoch (UTC): 18 December 2014 18:23:25
Eccentricity: 0.0031893
inclination: 90.2993°
perigee height: 1270 km
apogee height: 1319 km
right ascension of ascending node: 259.6524°
argument of perigee: 77.4609°
revolutions per day: 12.91735543
mean anomaly at epoch: 335.7417°
orbit number at epoch: 8939

The dashed part of the orbit path shows where the satellite is in the earth's shadow,  

DLR